Volver al catálogo

COSMOS 1275 DEB

ActivoPO
NORAD 17025·DEBRIS·🇷🇺 Russia

Lanzado Jun 4, 1981 desde Plesetsk Cosmodrome

Loading…

Próximos Pases (próximas 24 horas)

TLE

ActualizadoSource: Space-Track

Época: Sep 14, 2026, 06:38 UTC

1 17025U 81053KF  26257.27706831  .00000535  00000-0  46916-3 0  9990
2 17025  82.8294   4.2706 0073472 158.8047 230.2474 13.82574123 76589

Sigue COSMOS 1275 DEB en tiempo real con AllMySat

Download on the App Store